Showing default

AAC-HSI-SAT3, 58848

Orbit data source: Space-Track

AAC-HSI-SAT3, 58848 is a UK payload satellite in SSO that was launched on Sat, 11 Nov 2023 UTC via an FALCON 9 launch vehicle from the Air Force Western Test Range (AFWTR). Payload-class satellites include a variety of spacecraft equipped with specific instruments for various scientific and technological missions. These include communications satellites like Starlink; space stations such as the ISS; scientific satellites like the Hubble; Earth observation satellites from companies like Planet Labs, Umbra, and HawkEye 360; GPS; miniature CubeSats for education and research; and military/defense satellites.

Loading next visibility...
Identifier
58848, 2023-174DH
Orbit
SSO
Country
Flag of UKUK
Related business
Manufacturer
AAC ClydeSpace
Mission
Operational Commercial Imaging
Bus & Motor
CUBESAT 6U, Unknown motor
Mass
10 kg wet, ~10 kg dry
Launch date (UTC)
2023-11-11 (3 years ago)
Launch vehicle
FALCON 9
Launch site
Air Force Western Test Range (AFWTR)
Object type
Payload
Rocket body
Debris
Shape & HBR
Box + 2 Pan, 1.0 m
Radar Cross Section
0.092 m², Medium (>0.1 m² and < 1m²)

Expand to show TLE details & history
Last TLE update: 23 hours ago

TLE from 23 hours ago
0 AAC-HSI-SAT3
1 58848U 23174DH  26172.49766890  .00002059  00000-0  11106-3 0  9995
2 58848  97.3404 231.7481 0010318   2.6524 357.4762 15.15802583144551
Epoch: 2026-06-21T11:56Z
TLE epoch observation values (Epoch: 2026-06-21T11:56:38.592Z)
Latitude
-0.00004°
Longitude
142.89022°
Altitude
514.519 km
Speed
7.61 km/s
True Right ascension
15h 26m 59s
True Declination
0° 00' 00"
Sunlit
Object was in full shadow at epoch
Visualization orbit readout
Latitude
Unknown
Longitude
Unknown
Altitude
Unknown
Speed
Unknown
Apparent Right ascension
Unknown
Apparent Declination
Unknown
Sunlit
N/A
Visualization observer readout
Local Sidereal Time
21:38:57
Azimuth
Unknown
Elevation
Unknown
Doppler factor
Unknown
Orbital elements
Apogee altitude
522.625 km
Perigee altitude
508.399 km
Semi-major axis
6,893.649 km
Eccentricity
0.00103
Inclination
97.3404°
RAAN
231.7481°
Arg. of periapsis
2.6524°
True anomaly
357.47099°
Mean anomaly
357.4762°
Eccentric anomaly
357.47359°
Mean motion
3.79201 °/min
Orbital period
94.94 mins
BSTAR
0.00011106
Loading maneuver chart data...
Computing Atmospheric mass density...

Documentation

Showing up to 5 results
|